FW7792 Weather Reports


time (UTC)temp
F
wind
direction
speed
knots
gust
knots
rain 1hr
in
rain 24hr
in
rain mn
in
humidity
%
barometer
mb
20260508085529 57 289 5.2 13.0 0.00 0.19 0.15 91 1005.7
20260508085023 57 262 5.2 11.3 0.00 0.19 0.15 92 1005.7
20260508084538 57 260 5.2 10.4 0.00 0.19 0.15 92 1005.7
20260508084027 57 270 4.3 7.8 0.00 0.19 0.15 93 1005.6
20260508083527 57 284 3.5 7.8 0.00 0.19 0.15 93 1005.5
20260508083045 57 285 3.5 7.8 0.00 0.19 0.15 93 1005.4
20260508082525 57 280 4.3 8.7 0.00 0.19 0.15 93 1005.4
20260508082026 57 251 3.5 8.7 0.00 0.19 0.15 93 1005.5
20260508081542 57 274 4.3 8.7 0.00 0.19 0.15 93 1005.4
20260508081026 57 297 3.5 7.8 0.00 0.19 0.15 93 1005.3
20260508080524 57 286 3.5 8.7 0.00 0.19 0.15 93 1005.0
20260508080035 57 272 3.5 8.7 0.00 0.19 0.15 93 1005.1
20260508075525 57 315 3.5 9.6 0.00 0.19 0.15 92 1005.2
20260508075023 57 293 3.5 9.6 0.00 0.19 0.15 92 1004.9
20260508074537 57 293 5.2 8.7 0.00 0.19 0.15 92 1004.8
20260508074212 57 288 3.5 11.3 0.00 0.19 0.15 92 1004.8
20260508073524 57 287 3.5 11.3 0.00 0.19 0.15 92 1004.6
20260508073044 57 287 3.5 10.4 0.01 0.19 0.15 92 1004.3
20260508072525 57 306 4.3 11.3 0.01 0.19 0.15 92 1004.2
20260508072027 57 289 6.1 11.3 0.01 0.19 0.15 92 1004.3
20260508071538 57 289 7.0 13.0 0.02 0.19 0.15 92 1004.2
20260508071024 57 291 6.1 14.8 0.02 0.19 0.15 92 1004.0
20260508070529 57 267 7.8 15.6 0.03 0.19 0.15 92 1004.2
20260508070047 57 256 9.6 18.2 0.03 0.19 0.15 93 1003.9
20260508065524 57 283 9.6 18.2 0.04 0.19 0.15 94 1004.3
20260508065033 57 233 9.6 18.2 0.06 0.19 0.15 94 1004.2
20260508064541 58 281 8.7 21.7 0.08 0.19 0.15 94 1004.2
20260508064027 58 264 8.7 21.7 0.08 0.19 0.15 94 1003.8
20260508063525 59 253 12.2 22.6 0.10 0.19 0.15 94 1004.8
20260508063057 59 244 13.0 22.6 0.09 0.18 0.14 94 1004.6
20260508062530 59 260 13.0 20.9 0.10 0.18 0.14 94 1004.6
20260508062026 59 234 12.2 20.9 0.10 0.18 0.14 94 1005.1
20260508061541 60 227 7.8 18.2 0.10 0.17 0.13 95 1004.6
20260508061026 61 264 7.8 18.2 0.10 0.17 0.13 95 1004.5
20260508060524 61 256 7.8 20.0 0.09 0.16 0.12 95 1004.4
20260508060042 61 256 9.6 20.9 0.10 0.16 0.12 94 1003.9
20260508055524 62 261 10.4 24.3 0.10 0.15 0.11 93 1003.9
20260508055026 63 272 11.3 24.3 0.09 0.13 0.09 91 1003.9
20260508054537 66 228 6.1 11.3 0.07 0.11 0.07 92 1004.3
20260508054023 66 258 5.2 9.6 0.07 0.11 0.07 91 1004.1
20260508053523 66 286 4.3 12.2 0.05 0.09 0.05 90 1003.8
20260508053036 67 297 6.1 12.2 0.05 0.09 0.05 90 1003.8
20260508052527 67 278 4.3 13.0 0.04 0.08 0.04 89 1003.6
20260508052025 67 304 6.1 13.0 0.04 0.08 0.04 88 1003.6
20260508051540 67 275 6.1 12.2 0.03 0.07 0.03 88 1003.5
20260508051024 67 322 5.2 10.4 0.03 0.07 0.03 87 1003.0
20260508050525 67 294 4.3 10.4 0.03 0.07 0.03 86 1002.7
20260508050039 68 279 4.3 10.4 0.01 0.05 0.01 85 1002.5
20260508045526 68 283 4.3 10.4 0.01 0.05 0.01 84 1002.3
20260508045027 68 296 2.6 8.7 0.00 0.04 0.00 83 1002.4
20260508044535 68 302 2.6 8.7 0.00 0.04 0.00 84 1002.5
20260508044027 68 276 0.9 8.7 0.00 0.04 0.00 84 1002.6
20260508043523 68 322 1.7 8.7 0.00 0.04 0.00 84 1002.5
20260508043053 68 320 2.6 7.8 0.00 0.04 0.00 84 1002.4
20260508042525 68 356 2.6 9.6 0.00 0.04 0.00 84 1002.2
20260508042026 68 3 2.6 10.4 0.00 0.04 0.00 84 1002.1
20260508041545 68 319 2.6 10.4 0.00 0.04 0.00 83 1002.2
20260508041027 68 348 2.6 10.4 0.00 0.04 0.00 83 1002.1
20260508040609 68 307 2.6 8.7 0.00 0.04 0.00 82 1002.1
20260508040038 68 316 1.7 11.3 0.00 0.04 0.00 82 1002.3
20260508035524 68 322 3.5 13.9 0.00 0.04 0.00 82 1002.4
20260508035023 68 317 4.3 13.9 0.02 0.04 0.00 84 1002.6
20260508034536 67 320 5.2 12.2 0.04 0.04 0.00 85 1002.4
20260508034027 67 303 5.2 14.8 0.04 0.04 0.00 87 1002.8
20260508033523 67 316 6.1 14.8 0.04 0.04 0.00 87 1003.1
20260508033036 67 300 5.2 13.9 0.04 0.04 0.00 87 1003.1
20260508032528 67 308 4.3 11.3 0.04 0.04 0.00 87 1002.9
20260508032023 67 285 4.3 11.3 0.04 0.04 0.00 87 1003.0
20260508031536 67 291 5.2 11.3 0.04 0.04 0.00 86 1003.0
20260508031024 67 291 5.2 13.9 0.04 0.04 0.00 85 1003.2
20260508030528 67 278 6.1 22.6 0.04 0.04 0.00 85 1003.2
20260508030042 67 312 7.0 23.5 0.04 0.04 0.00 85 1003.3
20260508025526 68 281 11.3 23.5 0.04 0.04 0.04 82 1003.4
20260508025029 70 272 10.4 20.9 0.02 0.02 0.02 76 1003.5
20260508024536 72 274 12.2 20.9 0.00 0.00 0.00 70 1003.7
20260508024027 72 279 9.6 25.2 0.00 0.00 0.00 69 1003.3
20260508023525 74 239 14.8 25.2 0.00 0.00 0.00 66 1003.4
20260508023043 76 259 11.3 35.6 0.00 0.00 0.00 63 1003.4
20260508022524 79 302 18.2 35.6 0.00 0.00 0.00 57 1003.6
20260508022023 81 272 7.0 17.4 0.00 0.00 0.00 59 1002.5
20260508021546 81 313 7.0 17.4 0.00 0.00 0.00 59 1001.3
20260508021024 81 353 8.7 16.5 0.00 0.00 0.00 58 1001.2
20260508020526 81 328 7.0 15.6 0.00 0.00 0.00 58 1001.3
20260508020045 81 316 7.8 18.2 0.00 0.00 0.00 58 1001.3
20260508015525 81 1 7.8 18.2 0.00 0.00 0.00 58 1000.9
20260508015024 81 353 7.0 14.8 0.00 0.00 0.00 58 1000.9
20260508014544 80 349 7.8 16.5 0.00 0.00 0.00 59 1001.1
20260508014210 81 18 7.0 16.5 0.00 0.00 0.00 58 1001.0
20260508013524 80 348 6.1 13.0 0.00 0.00 0.00 59 1001.3
20260508013046 80 345 4.3 11.3 0.00 0.00 0.00 59 1001.3
20260508012529 80 1 6.1 12.2 0.00 0.00 0.00 59 1001.2
20260508012026 80 16 3.5 13.9 0.00 0.00 0.00 59 1001.3
20260508011541 80 352 7.0 13.9 0.00 0.00 0.00 59 1001.3
20260508011026 80 347 3.5 9.6 0.00 0.00 0.00 60 1001.5
20260508010526 80 356 4.3 9.6 0.00 0.00 0.00 60 1001.4
20260508010040 80 296 3.5 10.4 0.00 0.00 0.00 60 1001.3
20260508005524 80 4 5.2 10.4 0.00 0.00 0.00 59 1001.3
20260508005027 80 25 6.1 10.4 0.00 0.00 0.00 59 1001.2
20260508004536 80 359 5.2 9.6 0.00 0.00 0.00 60 1001.3
20260508004027 80 34 4.3 9.6 0.00 0.00 0.00 60 1001.3
20260508003530 80 324 4.3 10.4 0.00 0.00 0.00 60 1001.4
20260508003042 80 358 4.3 10.4 0.00 0.00 0.00 60 1001.4
20260508002523 80 12 3.5 9.6 0.00 0.00 0.00 60 1001.3
20260508002026 80 6 5.2 9.6 0.00 0.00 0.00 59 1001.5
20260508001558 80 14 5.2 9.6 0.00 0.00 0.00 60 1001.3
20260508001023 80 18 4.3 9.6 0.00 0.00 0.00 60 1001.4
20260508000524 80 29 4.3 12.2 0.00 0.00 0.00 60 1001.4
20260508000043 80 2 5.2 12.2 0.00 0.00 0.00 60 1001.3
20260507235523 80 33 6.1 11.3 0.00 0.00 0.00 60 1001.3
20260507235024 80 8 5.2 11.3 0.00 0.00 0.00 60 1001.3
20260507234537 80 23 6.1 11.3 0.00 0.00 0.00 60 1001.2
20260507234053 80 25 6.1 11.3 0.00 0.00 0.00 61 1001.3
20260507233526 80 29 6.1 11.3 0.00 0.00 0.00 61 1001.3
20260507233036 80 25 6.1 9.6 0.00 0.00 0.00 61 1001.5
20260507232526 80 17 5.2 9.6 0.00 0.00 0.00 61 1001.6
20260507232026 80 28 5.2 9.6 0.00 0.00 0.00 61 1001.6
20260507231537 80 29 4.3 9.6 0.00 0.00 0.00 60 1001.8
20260507231027 80 18 3.5 8.7 0.00 0.00 0.00 60 1001.7
20260507230529 80 16 3.5 8.7 0.00 0.00 0.00 60 1001.7
20260507230042 80 20 2.6 7.8 0.00 0.00 0.00 60 1001.9
20260507225527 81 358 3.5 7.8 0.00 0.00 0.00 60 1001.8
20260507225028 81 356 4.3 9.6 0.00 0.00 0.00 59 1001.9
20260507224551 81 34 4.3 9.6 0.00 0.00 0.00 59 1001.9
20260507224028 81 360 4.3 9.6 0.00 0.00 0.00 59 1002.1
20260507223528 81 37 2.6 7.0 0.00 0.00 0.00 60 1002.1
20260507223041 81 15 2.6 6.1 0.00 0.00 0.00 60 1001.9
20260507222528 81 25 3.5 8.7 0.00 0.00 0.00 60 1001.9
20260507222028 81 5 3.5 8.7 0.00 0.00 0.00 60 1002.1
20260507221535 81 16 3.5 7.8 0.00 0.00 0.00 60 1002.1
20260507221027 81 357 2.6 8.7 0.00 0.00 0.00 60 1002.2
20260507220609 81 2 4.3 9.6 0.00 0.00 0.00 60 1002.3
20260507220042 81 357 3.5 9.6 0.00 0.00 0.00 60 1002.3
20260507215530 81 8 4.3 9.6 0.00 0.00 0.00 60 1002.1
20260507215024 81 351 4.3 9.6 0.00 0.00 0.00 60 1002.1
20260507214538 81 338 4.3 9.6 0.00 0.00 0.00 60 1002.1
20260507214026 81 353 3.5 10.4 0.00 0.00 0.00 60 1002.3
20260507213526 81 2 5.2 10.4 0.00 0.00 0.00 60 1002.1
20260507213036 81 353 4.3 9.6 0.00 0.00 0.00 60 1002.1
20260507212526 81 351 4.3 8.7 0.00 0.00 0.00 60 1002.3
20260507212026 81 333 3.5 7.8 0.00 0.00 0.00 60 1002.3
20260507211540 81 343 3.5 7.0 0.00 0.00 0.00 61 1002.3
20260507211024 81 356 3.5 7.0 0.00 0.00 0.00 61 1002.2
20260507210524 81 347 2.6 7.0 0.00 0.00 0.00 60 1002.3
20260507210036 81 356 2.6 7.0 0.00 0.00 0.00 60 1002.3
20260507205526 81 358 2.6 7.8 0.00 0.00 0.00 60 1002.3
20260507205030 82 358 2.6 9.6 0.00 0.00 0.00 59 1002.3
20260507204548 82 326 4.3 9.6 0.00 0.00 0.00 59 1002.3
20260507204031 82 335 2.6 9.6 0.00 0.00 0.00 60 1002.3
20260507203528 82 358 2.6 9.6 0.00 0.00 0.00 60 1002.2
20260507203042 82 347 4.3 10.4 0.00 0.00 0.00 59 1002.2
20260507202528 82 348 4.3 10.4 0.00 0.00 0.00 59 1002.3
20260507202028 82 2 3.5 9.6 0.00 0.00 0.00 59 1002.2
20260507201551 83 4 5.2 9.6 0.00 0.00 0.00 59 1002.1
20260507201028 83 357 5.2 9.6 0.00 0.00 0.00 59 1002.2
20260507200531 83 9 3.5 10.4 0.00 0.00 0.00 58 1002.2
20260507200048 83 346 2.6 10.4 0.00 0.00 0.00 59 1002.3
20260507195528 83 354 2.6 7.8 0.00 0.00 0.00 58 1002.3
20260507195028 83 355 2.6 8.7 0.00 0.00 0.00 59 1002.2
20260507194536 83 357 3.5 8.7 0.00 0.00 0.00 58 1002.3
20260507194211 84 345 2.6 8.7 0.00 0.00 0.00 58 1002.4
20260507193527 84 343 2.6 8.7 0.00 0.00 0.00 57 1002.5
20260507193036 84 337 3.5 8.7 0.00 0.00 0.00 56 1002.5
20260507192527 84 349 3.5 12.2 0.00 0.00 0.00 57 1002.7
20260507192028 84 330 3.5 12.2 0.00 0.00 0.00 56 1002.6
20260507191535 84 334 4.3 10.4 0.00 0.00 0.00 54 1002.6
20260507191028 84 343 5.2 10.4 0.00 0.00 0.00 54 1002.5
20260507190528 84 305 5.2 12.2 0.00 0.00 0.00 54 1002.4
20260507190043 85 333 4.3 12.2 0.00 0.00 0.00 54 1002.3
20260507185528 85 311 4.3 13.9 0.00 0.00 0.00 53 1002.2
20260507185031 85 321 6.1 13.9 0.00 0.00 0.00 52 1002.2
20260507184541 85 265 4.3 15.6 0.00 0.00 0.00 51 1002.2
20260507184027 85 343 6.1 15.6 0.00 0.00 0.00 52 1002.2
20260507183527 85 334 7.0 15.6 0.00 0.00 0.00 51 1002.3
20260507183039 85 295 7.8 15.6 0.00 0.00 0.00 50 1002.3
20260507182528 85 326 7.8 15.6 0.00 0.00 0.00 50 1002.3
20260507182028 85 307 7.0 15.6 0.00 0.00 0.00 51 1002.2
20260507181543 85 305 5.2 15.6 0.00 0.00 0.00 50 1002.3
20260507181031 85 285 6.1 13.0 0.00 0.00 0.00 51 1002.1
20260507180529 85 279 6.1 13.0 0.00 0.00 0.00 52 1002.1
20260507180044 85 303 5.2 15.6 0.00 0.00 0.00 52 1002.2
20260507175527 86 295 6.1 17.4 0.00 0.00 0.00 51 1002.2
20260507175030 86 290 7.0 17.4 0.00 0.00 0.00 51 1002.1
20260507174547 86 304 8.7 20.9 0.00 0.00 0.00 49 1002.2
20260507174028 86 340 11.3 20.9 0.00 0.00 0.00 49 1002.1
20260507173532 86 336 11.3 19.1 0.00 0.00 0.00 48 1002.2
20260507173043 86 304 7.8 17.4 0.00 0.00 0.00 52 1002.2
20260507172527 86 265 7.0 16.5 0.00 0.00 0.00 51 1002.4
20260507172027 86 323 5.2 13.0 0.00 0.00 0.00 52 1002.4
20260507171538 86 326 6.1 13.9 0.00 0.00 0.00 53 1002.5
20260507171028 86 321 7.0 13.9 0.00 0.00 0.00 52 1002.5
20260507170528 86 342 7.0 15.6 0.00 0.00 0.00 52 1002.4
20260507170043 86 300 7.0 15.6 0.00 0.00 0.00 53 1002.4
20260507165530 86 296 7.8 15.6 0.00 0.00 0.00 51 1002.4
20260507165029 86 345 7.0 14.8 0.00 0.00 0.00 54 1002.5
20260507164536 86 328 5.2 17.4 0.00 0.00 0.00 55 1002.5
20260507164028 86 308 7.8 17.4 0.00 0.00 0.00 56 1002.6
20260507163529 86 339 6.1 17.4 0.00 0.00 0.00 56 1002.8
20260507163034 86 326 7.0 14.8 0.00 0.00 0.00 57 1003.0
20260507162528 85 327 5.2 14.8 0.00 0.00 0.00 57 1003.0
20260507162028 85 330 7.0 15.6 0.00 0.00 0.00 57 1003.2
20260507161545 85 335 7.8 20.0 0.00 0.00 0.00 57 1003.2
20260507161030 85 325 7.0 20.9 0.00 0.00 0.00 56 1003.4
20260507160611 86 352 10.4 20.9 0.00 0.00 0.00 54 1003.4
20260507160036 87 328 9.6 19.1 0.00 0.00 0.00 53 1003.2
20260507155530 87 18 5.2 18.2 0.00 0.00 0.00 57 1003.8
20260507155028 86 312 8.7 20.0 0.00 0.00 0.00 55 1003.8
20260507154535 86 309 11.3 20.0 0.00 0.00 0.00 55 1003.6
20260507154027 85 317 7.0 20.9 0.00 0.00 0.00 58 1003.8
20260507153527 84 296 7.8 20.9 0.00 0.00 0.00 58 1003.9
20260507153043 85 6 9.6 19.1 0.00 0.00 0.00 58 1004.0
20260507152527 84 337 7.8 19.1 0.00 0.00 0.00 60 1004.2
20260507152027 84 300 6.1 15.6 0.00 0.00 0.00 62 1004.3
20260507151543 82 336 8.7 17.4 0.00 0.00 0.00 62 1004.2
20260507151027 83 324 7.8 18.2 0.00 0.00 0.00 61 1004.7
20260507150527 83 346 7.0 18.2 0.00 0.00 0.00 61 1004.9
20260507150041 83 4 7.8 18.2 0.00 0.00 0.00 61 1004.7
20260507145528 84 298 7.0 17.4 0.00 0.00 0.00 63 1005.0
20260507145028 84 318 9.6 20.0 0.00 0.00 0.00 62 1005.0
20260507144539 84 336 8.7 20.0 0.00 0.00 0.00 62 1005.1
20260507144028 84 358 10.4 20.0 0.00 0.00 0.00 62 1005.2
20260507143530 83 12 10.4 20.0 0.00 0.00 0.00 62 1005.1
20260507143045 83 324 8.7 21.7 0.00 0.00 0.00 61 1005.4
20260507142527 83 331 10.4 22.6 0.00 0.00 0.00 62 1005.5
20260507142027 83 355 10.4 22.6 0.00 0.00 0.00 63 1005.5
20260507141541 83 356 11.3 20.0 0.00 0.00 0.00 62 1005.8
20260507141027 83 346 11.3 20.0 0.00 0.00 0.00 63 1005.9
20260507140528 83 324 11.3 20.9 0.00 0.00 0.00 62 1006.2
20260507140045 83 328 10.4 20.9 0.00 0.00 0.00 63 1006.2
20260507135531 82 355 8.7 18.2 0.00 0.00 0.00 65 1006.4
20260507135028 82 347 7.8 20.0 0.00 0.00 0.00 65 1006.5
20260507134542 82 10 9.6 20.0 0.00 0.00 0.00 63 1006.8
20260507134211 82 335 8.7 19.1 0.00 0.00 0.00 64 1006.7
20260507133528 82 3 8.7 19.1 0.00 0.00 0.00 65 1007.2
20260507133045 82 349 9.6 20.0 0.00 0.00 0.00 65 1007.3
20260507132527 82 311 9.6 20.0 0.00 0.00 0.00 65 1007.5
20260507132027 81 345 7.8 20.9 0.00 0.00 0.00 67 1007.6
20260507131555 81 357 8.7 20.9 0.00 0.00 0.00 66 1007.7
20260507131028 80 339 7.8 14.8 0.00 0.00 0.00 68 1007.9
20260507130529 80 11 7.0 15.6 0.00 0.00 0.00 68 1008.0
20260507130055 80 332 7.8 15.6 0.00 0.00 0.00 68 1008.1
20260507125528 80 349 5.2 13.9 0.00 0.00 0.00 70 1008.1
20260507125028 80 337 6.1 17.4 0.00 0.00 0.00 69 1008.1
20260507124547 80 322 6.1 17.4 0.00 0.00 0.00 69 1008.3
20260507124028 80 314 6.1 13.0 0.00 0.00 0.00 69 1008.1
20260507123528 80 322 6.1 12.2 0.00 0.00 0.00 69 1008.2
20260507123035 79 353 4.3 12.2 0.00 0.00 0.00 71 1008.3
20260507122523 79 338 4.3 13.0 0.00 0.00 0.00 69 1008.2
20260507122024 79 320 6.1 13.0 0.00 0.00 0.00 69 1008.1
20260507121535 79 320 6.1 13.9 0.00 0.00 0.00 69 1008.2
20260507121027 79 306 5.2 13.9 0.00 0.00 0.00 69 1008.3
20260507120523 79 335 5.2 13.0 0.00 0.00 0.00 69 1008.3
20260507120041 79 348 4.3 13.0 0.00 0.00 0.00 69 1008.5
20260507115523 79 322 4.3 13.0 0.00 0.00 0.00 70 1008.4
20260507115023 78 321 4.3 13.0 0.00 0.00 0.00 70 1008.4
20260507114548 78 318 3.5 10.4 0.00 0.00 0.00 70 1008.5
20260507114026 78 333 4.3 10.4 0.00 0.00 0.00 71 1008.7
20260507113524 78 316 3.5 9.6 0.00 0.00 0.00 71 1008.6
20260507113039 78 342 3.5 9.6 0.00 0.00 0.00 72 1008.5
20260507112524 78 348 4.3 13.0 0.00 0.00 0.00 71 1008.3
20260507112024 78 347 4.3 13.0 0.00 0.00 0.00 71 1008.3
20260507111535 79 349 3.5 9.6 0.00 0.00 0.00 71 1008.4
20260507111023 79 338 3.5 8.7 0.00 0.00 0.00 71 1008.1
20260507110523 78 6 3.5 8.7 0.00 0.00 0.00 71 1008.1
20260507110044 78 22 3.5 7.8 0.00 0.00 0.00 72 1008.0
20260507105524 78 31 3.5 7.8 0.00 0.00 0.00 72 1007.9
20260507105023 78 6 3.5 9.6 0.00 0.00 0.00 72 1007.8
20260507104544 77 17 2.6 9.6 0.00 0.00 0.00 73 1007.9
20260507104027 77 3 2.6 10.4 0.00 0.00 0.00 74 1008.1
20260507103527 76 357 1.7 11.3 0.00 0.00 0.00 76 1008.1
20260507103043 75 12 3.5 11.3 0.00 0.00 0.00 76 1008.1
20260507102523 74 20 1.7 4.3 0.00 0.00 0.00 78 1008.1
20260507102027 74 16 0.9 2.6 0.00 0.00 0.00 78 1008.0
20260507101538 74 46 0.9 3.5 0.00 0.00 0.00 78 1008.0
20260507101023 74 46 0.9 3.5 0.00 0.00 0.00 78 1008.0
20260507100611 74 41 0.0 2.6 0.00 0.00 0.00 77 1008.0
20260507100040 75 41 0.0 2.6 0.00 0.00 0.00 76 1008.1
20260507095527 75 41 0.0 2.6 0.00 0.00 0.00 76 1008.1
20260507095024 75 0 0.9 3.5 0.00 0.00 0.00 76 1008.2
20260507094539 75 18 0.9 4.3 0.00 0.00 0.00 76 1008.2
20260507094024 75 25 1.7 4.3 0.00 0.00 0.00 76 1008.0
20260507093523 75 29 1.7 5.2 0.00 0.00 0.00 76 1008.0
20260507093035 75 26 1.7 5.2 0.00 0.00 0.00 75 1007.9
20260507092523 76 29 1.7 5.2 0.00 0.00 0.00 75 1007.9
20260507092024 76 35 2.6 5.2 0.00 0.00 0.00 75 1007.9
20260507091544 76 33 2.6 7.0 0.00 0.00 0.00 75 1008.0
20260507091024 76 32 2.6 7.0 0.00 0.00 0.00 75 1007.9
20260507090524 76 35 2.6 5.2 0.00 0.00 0.00 75 1007.8
20260507090040 76 33 2.6 7.0 0.00 0.00 0.00 75 1007.9